Spokane, WA
on Saturday, January 19, 2013

Saturday
Previous Day Next Day
Daily Summary
 ActualAverageRecord
Temperature
Mean Temperature °F 30°F  
Max Temperature 30°F 35°F 51°F (1944)
Min Temperature 11°F 25°F -25°F (1883)
Degree Days
Heating Degree Days 44 35  
Month to date heating degree days 796 689  
Since 1 July heating degree days 3221 3523  
Cooling Degree Days 0 0  
Month to date cooling degree days 0 0  
Year to date cooling degree days 0 0  
Moisture
Dew Point 16°F   
Average Humidity 85    
Maximum Humidity 92    
Minimum Humidity 78    
Precipitation
Precipitation 0.00 in 0.06 in 0.77 in (1950)
Month to date precipitation 1.05 1.18  
Year to date precipitation 1.05 1.18  
Snow
Snow 0.00 in 0.40 in 6.00 in (2012)
Month to date snowfall 11.8 8.1  
Since 1 July snowfall 35.8 30.2  
Snow Depth 1.00 in   
Wind
Wind Speed 1 mph   
Max Wind Speed 7 mph   
Max Gust Speed 8 mph   
Visibility 6 miles   
Events Fog   

Key: T is trace of precipitation, MM is missing value
Source: NWS Daily Summary
Time(PST)TemperatureDew PointHumidity Pressure Visibility Wind DirectionWind SpeedGust SpeedPrecipitationEvents Conditions
12:53 AM 12.9°F 10.9°F 92% 30.40 in 0.5 miles Calm Calm - N/A Fog Light Freezing Fog
1:53 AM 15.1°F 12.0°F 88% 30.41 in 0.1 miles Calm Calm - N/A Fog Light Freezing Fog
2:53 AM 10.9°F 9.0°F 92% 30.42 in 0.1 miles Calm Calm - N/A Fog Light Freezing Fog
3:34 AM 12.2°F 8.6°F 85% 30.31 in 0.5 miles ENE 3.5 mph - N/A Fog Light Freezing Fog
3:53 AM 12.9°F 10.0°F 88% 30.43 in 0.2 miles Calm Calm - N/A Fog Light Freezing Fog
4:22 AM 12.2°F 8.6°F 85% 30.31 in 1.0 miles Calm Calm - N/A   Partly Cloudy
4:53 AM 12.0°F 8.1°F 84% 30.44 in 1.5 miles Calm Calm - N/A   Mostly Cloudy
5:17 AM 12.2°F 8.6°F 85% 30.32 in 3.0 miles Calm Calm - N/A   Overcast
5:53 AM 16.0°F 12.9°F 88% 30.44 in 5.0 miles ENE 3.5 mph - N/A   Overcast
6:53 AM 16.0°F 12.9°F 88% 30.45 in 6.0 miles ENE 3.5 mph - N/A   Mostly Cloudy
7:53 AM 17.1°F 14.0°F 88% 30.46 in 7.0 miles Calm Calm - N/A Fog Mostly Cloudy
8:53 AM 18.0°F 14.0°F 84% 30.49 in 7.0 miles Calm Calm - N/A Fog Mostly Cloudy
9:53 AM 19.9°F 18.0°F 92% 30.50 in 7.0 miles Calm Calm - N/A Fog Mostly Cloudy
10:53 AM 24.1°F 19.9°F 84% 30.48 in 8.0 miles NE 3.5 mph - N/A Fog Mostly Cloudy
11:53 AM 23.0°F 19.0°F 85% 30.48 in 7.0 miles NE 3.5 mph - N/A   Mostly Cloudy
12:53 PM 27.0°F 23.0°F 85% 30.45 in 10.0 miles Calm Calm - N/A   Mostly Cloudy
1:53 PM 28.9°F 24.1°F 82% 30.43 in 10.0 miles Calm Calm - N/A   Mostly Cloudy
2:53 PM 30.0°F 24.1°F 79% 30.44 in 10.0 miles Calm Calm - N/A   Mostly Cloudy
3:53 PM 28.9°F 23.0°F 78% 30.44 in 10.0 miles Calm Calm - N/A   Mostly Cloudy
4:53 PM 25.0°F 21.0°F 85% 30.45 in 10.0 miles Calm Calm - N/A   Mostly Cloudy
5:53 PM 23.0°F 19.9°F 88% 30.45 in 10.0 miles SW 3.5 mph - N/A   Mostly Cloudy
6:53 PM 21.9°F 19.0°F 89% 30.45 in 10.0 miles Calm Calm - N/A   Overcast
7:53 PM 24.1°F 21.0°F 88% 30.46 in 10.0 miles Calm Calm - N/A   Overcast
8:53 PM 21.9°F 19.0°F 89% 30.48 in 10.0 miles Calm Calm - N/A   Overcast
9:53 PM 23.0°F 19.9°F 88% 30.49 in 10.0 miles North 3.5 mph - N/A   Overcast
10:53 PM 19.9°F 17.1°F 89% 30.48 in 10.0 miles SW 3.5 mph - N/A   Mostly Cloudy
11:01 PM 21.2°F 17.6°F 86% 30.38 in 6.0 miles Calm Calm - N/A   Mostly Cloudy
11:53 PM 21.0°F 18.0°F 88% 30.49 in 6.0 miles Calm Calm - N/A   Mostly Cloudy
Moon Phase
Jan. 19 Jan. 26 Feb. 03 Feb. 10 Feb. 17
Sunrise:07:30 AM (PST) Moon Rise:11:05 AM (PST)1/19
Sunset:04:32 PM (PST) Moon Set:01:03 AM (PST)1/19

Copyright © 2014 The Weather Underground, Inc.